Regional Weather Roundup
Issued by NWS

Home | Current Version | Previous Version | Text Only | Print | Product List | Glossary Off
Versions: 1 2 3 4 5 6 7 8 9 10 11 12 13 14 15 16 17 18 19 20 21 22 23 24 25 26 27 28 29 30 31 32 33 34 35 36 37 38 39 40 41 42 43 44 45 46 47 48 49 50

000
ASUS45 KPSR 261900
RWRAZ

PRELIMINARY ARIZONA REGIONAL HOURLY WEATHER ROUNDUP
NATIONAL WEATHER SERVICE PHOENIX AZ
1200 PM MST FRI DEC 26 2014

NOTE: FAIR INDICATES FEW OR NO CLOUDS BELOW 12,000 FEET WITH NO
SIGNIFICANT WEATHER AND/OR OBSTRUCTIONS TO VISIBILITY.

AZZ001>003-036-262000-
NORTHWEST ARIZONA

CITY           SKY/WX    TMP DP  RH WIND       PRES   REMARKS
KINGMAN        FAIR      41  14  33 N14       30.03F
$$

AZZ004>008-015-016-018-262000-
NORTH CENTRAL ARIZONA

CITY           SKY/WX    TMP DP  RH WIND       PRES   REMARKS
GRAND CANYON   PTSUNNY   25  13  60 VRB7G16   29.89F WCI  17
PRESCOTT       FAIR      35  12  38 NW8       29.95F WCI  29
FLAGSTAFF      NOT AVBL
PAYSON         FAIR      36  12  38 SW6G13    29.95F WCI  31
PAGE           FAIR      40   7  25 NW9G18    29.90S WCI  34
$$

AZZ009>014-017-262000-
NORTHEAST ARIZONA

CITY           SKY/WX    TMP DP  RH WIND       PRES   REMARKS
WINSLOW        NOT AVBL
SAINT JOHNS    FAIR      31  17  56 NW12      29.88F WCI  22
WINDOW ROCK    PTSUNNY   26  14  60 NW6       29.84F WCI  19
SHOW LOW       FAIR      28   7  40 SW16G22   29.90F WCI  17
$$

AZZ023-262000-
GREATER PHOENIX AREA

CITY           SKY/WX    TMP DP  RH WIND       PRES   REMARKS
PHOENIX        FAIR      50  18  28 VRB3      30.02F
GLENDALE       MOSUNNY   52  23  32 S5        30.05F
LUKE AFB       FAIR      51  20  29 SW2       30.03F
DEER VALLEY    FAIR      49  18  29 SW3       30.01F
SCOTTSDALE     FAIR      49  19  30 VRB3      30.03F
MESA-FALCON    SUNNY     48  14  25 CALM      30.02F
MESA-GATEWAY   SUNNY     48  18  29 CALM      30.04F
CHANDLER       SUNNY     50  18  27 CALM      30.04F
$$

AZZ027-028-262000-
SOUTHWEST MARICOPA COUNTY AND PINAL COUNTY

CITY           SKY/WX    TMP DP  RH WIND       PRES   REMARKS
CASA GRANDE    FAIR      48  18  29 CALM      30.03F
$$

AZZ503-504-507>509-262000-
SOUTHEAST ARIZONA

CITY           SKY/WX    TMP DP  RH WIND       PRES   REMARKS
TUCSON         FAIR      49  16  26 VRB5      30.02F
RYAN FIELD       N/A     52  23  32 NW8       30.03F
NOGALES        FAIR      49  21  33 MISG      29.97F
SIERRA VISTA   FAIR      46  20  35 W17G28    29.95F
SAFFORD        FAIR      47  14  26 NW13G21   29.96F
$$

AZZ020-021-025-026-031-262000-
SOUTHWEST ARIZONA

CITY           SKY/WX    TMP DP  RH WIND       PRES   REMARKS
YUMA           NOT AVBL
$$

CAZ031-033-041-043-047-048-061-262000-
SOUTHERN CALIFORNIA

CITY           SKY/WX    TMP DP  RH WIND       PRES   REMARKS
DOWNTOWN L.A.  FAIR      60  20  21 CALM      30.09F
L.A. AIRPORT   FAIR      57  19  22 CALM      30.09F
SAN DIEGO      FAIR      59  20  22 S6        30.09S
BURBANK        FAIR      58  15  18 E3        30.08S
ONTARIO        FAIR      56  12  17 NE21G32   30.07S
RIVERSIDE      FAIR      57  11  16 NE12G23   30.09S
PALM SPRINGS   FAIR      60   8  12 N13G22    30.12F
EL CENTRO NAS  FAIR      60  18  19 NW15      30.11F
IMPERIAL       FAIR      59  17  19 N10       30.10F
BLYTHE         FAIR      56  14  19 N13       30.09F
$$

NVZ020-UTZ003-262000-
SOUTHERN NEVADA-UTAH

CITY           SKY/WX    TMP DP  RH WIND       PRES   REMARKS
LAS VEGAS      NOT AVBL
SALT LAKE CITY PTSUNNY   27  19  72 N10       30.02S WCI  17
$$

NMZ009-TXZ055-262000-
NEW MEXICO-WEST TEXAS

CITY           SKY/WX    TMP DP  RH WIND       PRES   REMARKS
ALBUQUERQUE    FAIR      35  15  44 SW20G25   29.86F WCI  24
EL PASO        CLOUDY    38  35  89 S6        29.95F WCI  33
$$


........................KEY........................
SKY/WX - SKY CONDITION/WEATHER
TMP    - TEMPERATURE IN FAHRENHEIT
DP     - DEW POINT IN FAHRENHEIT
RH     - RELATIVE HUMIDITY IN PERCENT
WIND   - DIRECTION AND SPEED IN MILES PER HOUR (MPH)
VRB    - VARIABLE WIND DIRECTION
PRES   - MEAN SEA LEVEL PRESSURE IN INCHES OF MERCURY
         F - FALLING PRESSURE   R - RISING PRESSURE
         S - STEADY PRESSURE
VSB    - VISIBILITY IN MILES
HX     - HEAT INDEX IN FAHRENHEIT
WCI    - WIND CHILL INDEX IN FAHRENHEIT
TC     - TEMPERATURE IN CELSIUS WHICH IS ALSO KNOWN AS
         TEMPERATURE IN CENTIGRADE
AFB    - AIR FORCE BASE
         LUKE AFB IS LUKE AIR FORCE BASE
         DAVIS-MONTHAN IS DAVIS-MONTHAN AIR FORCE BASE
NAS    - NAVAL AIR STATION
         EL CENTRO NAS IS EL CENTRO NAVAL AIR STATION
N/A    - NOT AVAILABLE


USA.gov is the U.S. government's official web portal to all federal, state and local government web resources and services.